EW9276 Weather Reports


time (UTC)temp
C
wind
direction
speed
KPH
gust
KPH
rain 1hr
cm
rain 24hr
cm
rain mn
cm
humidity
%
barometer
mb
20260507064455 6 96 0.0 0.0 0.00 0.00 0.00 98 1014.2
20260507062951 6 83 0.0 0.0 0.00 0.00 0.00 97 1014.1
20260507061456 6 94 0.0 0.0 0.00 0.00 0.00 95 1014.4
20260507061452 6 96 0.0 0.0 0.00 0.00 0.00 97 1014.3
20260507055949 6 88 0.0 0.0 0.00 0.00 0.00 96 1014.3
20260507054553 7 95 0.0 0.0 0.00 0.00 0.00 93 1014.4
20260507053055 7 97 0.0 0.0 0.00 0.00 0.00 91 1014.6
20260507045948 8 84 0.0 0.0 0.00 0.00 0.00 87 1014.5
20260507045944 7 86 0.0 0.0 0.00 0.00 0.00 89 1014.7
20260507042941 8 73 0.0 0.0 0.00 0.00 0.00 87 1014.6
20260507042936 9 69 0.0 0.0 0.00 0.00 0.00 84 1014.3
20260507035930 -17 0.0 0.0 0.00 0.00 0.00 1014.5
20260507035924 9 59 0.0 0.0 0.00 0.00 0.00 80 1014.4
20260507032918 10 83 0.0 0.0 0.00 0.00 0.00 79 1014.4
20260507031412 -17 0.0 0.0 0.00 0.00 0.00 1014.6
20260507025907 -17 0.0 0.0 0.00 0.00 0.00 1014.5
20260507025901 -12 307 160.9 125.5 0.00 0.00 0.00 68 1014.6
20260507024355 -17 0.0 0.0 0.00 0.00 0.00 1014.5
20260507021348 -17 0.0 12.9 0.00 0.00 0.00 1014.5
20260507015844 -17 0.0 0.0 0.00 0.00 0.00 1014.1
20260507014339 -17 0.0 8.0 0.00 0.00 0.00 1013.9
20260507012834 -17 0.0 0.0 0.00 0.00 0.00 1013.7
20260507011328 -17 0.0 0.0 0.00 0.00 0.00 1013.8
20260507005826 13 349 4.8 20.9 0.00 0.00 0.00 60 1013.1
20260507005822 -17 0.0 0.0 0.00 0.00 0.00 1013.7
20260507004316 13 307 9.7 20.9 0.00 0.00 0.00 62 1013.6
20260507002922 13 322 14.5 27.4 0.00 0.00 0.00 58 1012.7
20260506235814 13 339 17.7 27.4 0.00 0.00 0.00 58 1012.6
20260506234318 14 297 8.0 16.1 0.00 0.00 0.00 61 1012.3
20260506234314 13 318 6.4 27.4 0.00 0.00 0.00 60 1012.3
20260506231308 14 312 9.7 20.9 0.00 0.00 0.00 61 1012.3
20260506225805 14 340 20.9 27.4 0.00 0.00 0.00 60 1012.6
20260506224300 14 292 8.0 32.2 0.00 0.00 0.00 61 1012.8
20260506222757 15 351 16.1 20.9 0.00 0.00 0.00 60 1012.8
20260506221253 -17 0.0 12.9 0.00 0.00 0.00 1012.7
20260506221248 15 84 11.3 20.9 0.00 0.00 0.00 59 1012.6
20260506214244 15 355 8.0 16.1 0.00 0.00 0.00 57 1012.3
20260506212738 -17 0.0 0.0 0.00 0.00 0.00 1012.0
20260506211232 16 13 9.7 12.9 0.00 0.00 0.00 56 1011.7
20260506205726 17 338 9.7 20.9 0.00 0.00 0.00 56 1011.8
20260506204221 -17 0.0 0.0 0.00 0.00 0.00 1011.8
20260506202715 11 0.0 0.0 0.00 0.00 0.00 61 1012.0
20260506201210 -17 0.0 0.0 0.00 0.00 0.00 1011.9
20260506201204 17 303 14.5 16.1 0.00 0.00 0.00 52 1011.9
20260506194159 16 310 4.8 20.9 0.00 0.00 0.00 52 1011.8
20260506192657 16 16 14.5 24.1 0.00 0.00 0.00 52 1011.6
20260506192651 16 342 9.7 24.1 0.00 0.00 0.00 54 1011.7
20260506185645 16 145 11.3 20.9 0.00 0.00 0.00 56 1011.7
20260506184144 16 348 19.3 27.4 0.00 0.00 0.00 56 1011.8
20260506184138 16 316 9.7 37.0 0.00 0.00 0.00 61 1011.9
20260506181136 15 322 14.5 27.4 0.00 0.00 0.00 59 1012.0
20260506175635 15 18 8.0 20.9 0.00 0.00 0.00 62 1011.9
20260506174135 15 308 12.9 16.1 0.00 0.00 0.00 64 1012.0
20260506172629 -17 0.0 0.0 0.00 0.00 0.00 1012.2
20260506171123 15 20 8.0 24.1 0.00 0.00 0.00 66 1012.0
20260506165622 13 18 9.7 16.1 0.00 0.00 0.00 68 1012.0
20260506164118 13 328 8.0 27.4 0.00 0.00 0.00 71 1012.2
20260506162617 13 341 16.1 32.2 0.00 0.00 0.00 72 1012.2
20260506161115 12 313 3.2 20.9 0.00 0.00 0.00 78 1012.1
20260506155614 12 317 8.0 24.1 0.00 0.00 0.00 80 1012.0
20260506154111 11 350 9.7 27.4 0.00 0.00 0.00 83 1012.0
20260506152609 11 318 4.8 20.9 0.00 0.00 0.00 86 1012.0
20260506151108 11 301 6.4 27.4 0.00 0.00 0.00 88 1011.6
20260506145607 11 321 3.2 24.1 0.00 0.00 0.00 88 1011.4
20260506144105 10 336 12.9 20.9 0.00 0.00 0.00 94 1011.1
20260506142607 9 356 4.8 16.1 0.00 0.00 0.00 99 1010.9
20260506142602 10 35 9.7 20.9 0.00 0.00 0.00 98 1010.9
20260506135557 9 11 0.0 12.9 0.00 0.00 0.00 99 1010.9
20260506134053 9 309 12.9 12.9 0.00 0.00 0.00 99 1010.6
20260506132546 9 299 6.4 8.0 0.00 0.00 0.00 99 1010.6
20260506131042 -17 0.0 0.0 0.00 0.00 0.00 1010.4
20260506125535 -17 0.0 0.0 0.00 0.00 0.00 1010.0
20260506124029 -17 0.0 0.0 0.00 0.00 0.00 1009.7
20260506122522 -17 0.0 0.0 0.00 0.00 0.00 1009.8
20260506121018 -17 0.0 0.0 0.00 0.00 0.00 1009.5
20260506115509 22 0.0 0.0 0.00 0.00 0.00 46 1009.3
20260506114005 -17 0.0 0.0 0.00 0.00 0.00 1008.5
20260506112459 -17 0.0 0.0 0.00 0.00 0.00 1008.4
20260506110953 13 0.0 0.0 0.00 0.00 0.00 8 1007.8
20260506105446 -17 0.0 0.0 0.00 0.00 0.00 1007.5
20260506105441 -17 0.0 0.0 0.00 0.00 0.00 1007.6
20260506102433 -17 0.0 0.0 0.00 0.00 0.00 1007.7
20260506100928 10 0.0 0.0 0.00 0.00 0.00 100 1007.3
20260506095422 -17 0.0 0.0 0.00 0.00 0.00 1007.2
20260506093916 -17 0.0 12.9 0.00 0.00 0.00 1006.8
20260506092411 -17 0.0 0.0 0.00 0.00 0.00 1007.1
20260506092406 -17 0.0 0.0 0.00 0.00 0.00 1006.9
20260506085357 -17 0.0 0.0 0.00 0.00 0.00 1006.3
20260506083852 -17 0.0 0.0 0.00 0.00 0.00 1006.4
20260506082346 -17 0.0 0.0 0.00 0.00 0.00 1006.5
20260506080840 -17 0.0 0.0 0.00 0.00 0.00 1006.4
20260506072321 -17 0.0 0.0 0.00 0.00 0.00 1005.7
20260506070815 -17 0.0 0.0 0.00 0.00 0.00 1005.6